| time (UTC) | temp F | wind direction | speed MPH | gust MPH | rain 1hr in | rain 24hr in | rain mn in | humidity % | barometer mb |
| 20260906125102 | 67 | 70 | 3.0 | 8.0 | 0.00 | 0.00 | 0.00 | 94 | 1017.3 |
| 20260906124603 | 67 | 101 | 5.0 | 8.0 | 0.00 | 0.00 | 0.00 | 95 | 1017.3 |
| 20260906124103 | 66 | 137 | 3.0 | 10.0 | 0.00 | 0.00 | 0.00 | 96 | 1017.2 |
| 20260906123603 | 66 | 111 | 3.0 | 8.0 | 0.00 | 0.00 | 0.00 | 97 | 1017.2 |
| 20260906123102 | 66 | 85 | 3.0 | 8.0 | 0.00 | 0.00 | 0.00 | 97 | 1017.1 |
| 20260906121603 | 64 | 119 | 3.0 | 9.0 | 0.00 | 0.00 | 0.00 | 98 | 1017.1 |
| 20260906121102 | 64 | 78 | 3.0 | 8.0 | 0.00 | 0.00 | 0.00 | 98 | 1017.0 |
| 20260906115603 | 61 | 95 | 2.0 | 3.0 | 0.00 | 0.00 | 0.00 | 98 | 1016.9 |
| 20260906115103 | 60 | 98 | 2.0 | 3.0 | 0.00 | 0.00 | 0.00 | 98 | 1016.8 |
| 20260906113603 | 59 | 100 | 0.0 | 1.0 | 0.00 | 0.00 | 0.00 | 98 | 1016.7 |
| 20260906113102 | 58 | 100 | 0.0 | 0.0 | 0.00 | 0.01 | 0.00 | 97 | 1016.7 |
| 20260906112103 | 58 | 100 | 0.0 | 0.0 | 0.00 | 0.01 | 0.00 | 97 | 1016.6 |
| 20260906111603 | 58 | 100 | 0.0 | 0.0 | 0.00 | 0.01 | 0.00 | 97 | 1016.5 |
| 20260906111103 | 57 | 100 | 0.0 | 0.0 | 0.00 | 0.01 | 0.00 | 96 | 1016.5 |
| 20260906110603 | 57 | 100 | 0.0 | 0.0 | 0.00 | 0.01 | 0.00 | 96 | 1016.4 |
| 20260906105104 | 57 | 100 | 0.0 | 0.0 | 0.00 | 0.01 | 0.00 | 96 | 1016.2 |
| 20260906104603 | 57 | 100 | 0.0 | 0.0 | 0.00 | 0.01 | 0.00 | 96 | 1016.2 |
| 20260906104103 | 57 | 100 | 0.0 | 0.0 | 0.00 | 0.01 | 0.00 | 96 | 1016.2 |
| 20260906102602 | 58 | 100 | 0.0 | 0.0 | 0.00 | 0.01 | 0.00 | 96 | 1016.0 |
| 20260906102103 | 58 | 100 | 0.0 | 0.0 | 0.00 | 0.01 | 0.00 | 96 | 1016.1 |
| 20260906101103 | 58 | 100 | 0.0 | 0.0 | 0.00 | 0.01 | 0.00 | 96 | 1015.9 |
| 20260906100603 | 58 | 100 | 0.0 | 0.0 | 0.00 | 0.01 | 0.00 | 96 | 1015.8 |
| 20260906100103 | 58 | 100 | 0.0 | 0.0 | 0.00 | 0.01 | 0.00 | 96 | 1015.8 |
| 20260906095603 | 59 | 100 | 0.0 | 0.0 | 0.00 | 0.01 | 0.00 | 96 | 1015.8 |
| 20260906095103 | 59 | 100 | 0.0 | 0.0 | 0.00 | 0.01 | 0.00 | 96 | 1015.8 |
| 20260906094602 | 59 | 100 | 0.0 | 0.0 | 0.00 | 0.01 | 0.00 | 96 | 1015.7 |
| 20260906094102 | 59 | 100 | 0.0 | 0.0 | 0.00 | 0.01 | 0.00 | 96 | 1015.8 |
| 20260906093602 | 59 | 100 | 0.0 | 0.0 | 0.00 | 0.01 | 0.00 | 96 | 1015.7 |
| 20260906093102 | 59 | 100 | 0.0 | 0.0 | 0.00 | 0.01 | 0.00 | 95 | 1015.5 |
| 20260906092603 | 59 | 100 | 0.0 | 0.0 | 0.00 | 0.01 | 0.00 | 95 | 1015.4 |
| 20260906092103 | 59 | 100 | 0.0 | 0.0 | 0.00 | 0.01 | 0.00 | 95 | 1015.4 |
| 20260906091602 | 59 | 100 | 0.0 | 0.0 | 0.00 | 0.01 | 0.00 | 95 | 1015.4 |
| 20260906091103 | 59 | 100 | 0.0 | 0.0 | 0.00 | 0.01 | 0.00 | 95 | 1015.4 |
| 20260906090103 | 59 | 100 | 0.0 | 0.0 | 0.00 | 0.01 | 0.00 | 95 | 1015.4 |
| 20260906085603 | 60 | 100 | 0.0 | 0.0 | 0.00 | 0.01 | 0.00 | 95 | 1015.2 |
| 20260906085103 | 60 | 100 | 0.0 | 0.0 | 0.00 | 0.01 | 0.00 | 95 | 1015.2 |
| 20260906084603 | 60 | 100 | 0.0 | 0.0 | 0.00 | 0.01 | 0.00 | 95 | 1015.2 |
| 20260906084102 | 60 | 100 | 0.0 | 0.0 | 0.00 | 0.01 | 0.00 | 95 | 1015.1 |
| 20260906083102 | 60 | 100 | 0.0 | 0.0 | 0.00 | 0.01 | 0.00 | 95 | 1014.9 |
| 20260906082602 | 61 | 100 | 0.0 | 0.0 | 0.00 | 0.01 | 0.00 | 95 | 1014.8 |
| 20260906082103 | 61 | 100 | 0.0 | 0.0 | 0.00 | 0.01 | 0.00 | 95 | 1014.8 |
| 20260906081603 | 61 | 100 | 0.0 | 0.0 | 0.00 | 0.01 | 0.00 | 95 | 1014.8 |
| 20260906080602 | 61 | 100 | 0.0 | 0.0 | 0.00 | 0.01 | 0.00 | 95 | 1014.7 |
| 20260906080103 | 61 | 100 | 0.0 | 0.0 | 0.00 | 0.01 | 0.00 | 95 | 1014.7 |
| 20260906075602 | 62 | 100 | 0.0 | 0.0 | 0.00 | 0.01 | 0.00 | 95 | 1014.7 |
| 20260906075103 | 62 | 100 | 0.0 | 0.0 | 0.00 | 0.01 | 0.00 | 94 | 1014.7 |
| 20260906074603 | 62 | 100 | 0.0 | 0.0 | 0.00 | 0.01 | 0.00 | 94 | 1014.8 |
| 20260906074103 | 62 | 100 | 0.0 | 0.0 | 0.00 | 0.01 | 0.00 | 94 | 1014.7 |
| 20260906073603 | 62 | 100 | 0.0 | 0.0 | 0.00 | 0.01 | 0.00 | 94 | 1014.6 |
| 20260906073103 | 62 | 100 | 0.0 | 0.0 | 0.00 | 0.01 | 0.00 | 94 | 1014.7 |
| 20260906072103 | 63 | 100 | 0.0 | 0.0 | 0.00 | 0.01 | 0.00 | 94 | 1014.5 |
| 20260906071602 | 63 | 100 | 0.0 | 0.0 | 0.00 | 0.01 | 0.00 | 94 | 1014.4 |
| 20260906071103 | 63 | 100 | 0.0 | 0.0 | 0.00 | 0.01 | 0.00 | 94 | 1014.5 |
| 20260906070603 | 63 | 100 | 0.0 | 0.0 | 0.00 | 0.01 | 0.00 | 94 | 1014.5 |
| 20260906065602 | 64 | 100 | 0.0 | 0.0 | 0.00 | 0.01 | 0.00 | 94 | 1014.6 |
| 20260906065102 | 64 | 100 | 0.0 | 0.0 | 0.00 | 0.01 | 0.00 | 94 | 1014.6 |
| 20260906064603 | 64 | 100 | 0.0 | 0.0 | 0.00 | 0.01 | 0.00 | 94 | 1014.7 |
| 20260906064102 | 64 | 100 | 0.0 | 0.0 | 0.00 | 0.01 | 0.00 | 94 | 1014.7 |
| 20260906063602 | 64 | 100 | 0.0 | 0.0 | 0.00 | 0.01 | 0.00 | 94 | 1014.7 |
| 20260906063103 | 64 | 100 | 0.0 | 0.0 | 0.00 | 0.01 | 0.00 | 94 | 1014.8 |
| 20260906062603 | 64 | 100 | 0.0 | 0.0 | 0.00 | 0.01 | 0.00 | 95 | 1014.8 |
| 20260906062103 | 64 | 100 | 0.0 | 1.0 | 0.00 | 0.01 | 0.00 | 95 | 1014.8 |
| 20260906061602 | 64 | 100 | 0.0 | 0.0 | 0.00 | 0.01 | 0.00 | 94 | 1014.8 |
| 20260906061102 | 64 | 100 | 0.0 | 0.0 | 0.00 | 0.01 | 0.00 | 94 | 1014.7 |
| 20260906060602 | 64 | 100 | 0.0 | 0.0 | 0.00 | 0.01 | 0.00 | 94 | 1014.7 |
| 20260906060103 | 64 | 100 | 0.0 | 0.0 | 0.00 | 0.01 | 0.00 | 94 | 1014.7 |
| 20260906055603 | 64 | 100 | 0.0 | 0.0 | 0.00 | 0.01 | 0.00 | 94 | 1014.7 |
| 20260906055102 | 64 | 100 | 0.0 | 0.0 | 0.00 | 0.01 | 0.00 | 94 | 1014.8 |
| 20260906054602 | 64 | 100 | 0.0 | 0.0 | 0.00 | 0.01 | 0.00 | 94 | 1014.8 |
| 20260906054103 | 64 | 100 | 0.0 | 0.0 | 0.00 | 0.01 | 0.00 | 94 | 1014.8 |
| 20260906053603 | 64 | 100 | 0.0 | 0.0 | 0.00 | 0.01 | 0.00 | 94 | 1014.7 |
| 20260906053103 | 64 | 100 | 0.0 | 1.0 | 0.00 | 0.01 | 0.00 | 94 | 1014.8 |
| 20260906052603 | 63 | 100 | 0.0 | 1.0 | 0.00 | 0.01 | 0.00 | 94 | 1014.7 |
| 20260906052103 | 63 | 100 | 0.0 | 0.0 | 0.00 | 0.01 | 0.00 | 93 | 1014.6 |
| 20260906051602 | 63 | 100 | 0.0 | 0.0 | 0.00 | 0.01 | 0.00 | 93 | 1014.5 |
| 20260906050603 | 63 | 100 | 0.0 | 0.0 | 0.00 | 0.01 | 0.00 | 93 | 1014.5 |
| 20260906045603 | 64 | 100 | 0.0 | 0.0 | 0.00 | 0.01 | 0.00 | 93 | 1014.5 |
| 20260906045103 | 64 | 100 | 0.0 | 0.0 | 0.00 | 0.01 | 0.00 | 93 | 1014.5 |
| 20260906044603 | 64 | 100 | 0.0 | 0.0 | 0.00 | 0.01 | 0.00 | 93 | 1014.5 |
| 20260906044103 | 64 | 100 | 0.0 | 0.0 | 0.00 | 0.01 | 0.00 | 93 | 1014.5 |
| 20260906043602 | 64 | 100 | 0.0 | 0.0 | 0.00 | 0.01 | 0.00 | 93 | 1014.6 |
| 20260906043103 | 64 | 100 | 0.0 | 0.0 | 0.00 | 0.01 | 0.00 | 93 | 1014.6 |
| 20260906042603 | 64 | 100 | 0.0 | 0.0 | 0.00 | 0.01 | 0.00 | 93 | 1014.5 |
| 20260906042103 | 64 | 100 | 0.0 | 0.0 | 0.00 | 0.01 | 0.00 | 93 | 1014.5 |
| 20260906041602 | 63 | 100 | 0.0 | 0.0 | 0.00 | 0.01 | 0.00 | 93 | 1014.5 |
| 20260906041102 | 63 | 100 | 0.0 | 0.0 | 0.00 | 0.01 | 0.00 | 92 | 1014.6 |
| 20260906040603 | 63 | 100 | 0.0 | 0.0 | 0.00 | 0.01 | 0.00 | 92 | 1014.4 |
| 20260906034603 | 64 | 100 | 0.0 | 0.0 | 0.00 | 0.01 | 0.01 | 92 | 1014.4 |
| 20260906034103 | 64 | 100 | 0.0 | 0.0 | 0.00 | 0.01 | 0.01 | 92 | 1014.4 |
| 20260906033103 | 64 | 100 | 0.0 | 0.0 | 0.00 | 0.01 | 0.01 | 93 | 1014.3 |
| 20260906032602 | 65 | 100 | 0.0 | 0.0 | 0.00 | 0.01 | 0.01 | 93 | 1014.2 |
| 20260906032102 | 65 | 100 | 0.0 | 0.0 | 0.00 | 0.01 | 0.01 | 93 | 1014.2 |
| 20260906030602 | 65 | 100 | 0.0 | 0.0 | 0.00 | 0.01 | 0.01 | 92 | 1014.2 |
| 20260906025602 | 64 | 100 | 0.0 | 0.0 | 0.00 | 0.01 | 0.01 | 92 | 1014.2 |
| 20260906024603 | 64 | 100 | 0.0 | 0.0 | 0.00 | 0.01 | 0.01 | 92 | 1014.2 |
| 20260906024103 | 64 | 100 | 0.0 | 0.0 | 0.00 | 0.01 | 0.01 | 92 | 1014.2 |
| 20260906023603 | 64 | 100 | 0.0 | 0.0 | 0.00 | 0.01 | 0.01 | 92 | 1014.0 |
| 20260906023102 | 64 | 100 | 0.0 | 0.0 | 0.00 | 0.01 | 0.01 | 91 | 1014.0 |
| 20260906022602 | 64 | 100 | 0.0 | 0.0 | 0.00 | 0.01 | 0.01 | 91 | 1014.0 |
| 20260906022103 | 64 | 100 | 0.0 | 0.0 | 0.00 | 0.01 | 0.01 | 91 | 1014.2 |
| 20260906021603 | 64 | 100 | 0.0 | 0.0 | 0.00 | 0.01 | 0.01 | 91 | 1014.2 |
| 20260906021102 | 64 | 100 | 0.0 | 0.0 | 0.00 | 0.01 | 0.01 | 91 | 1014.2 |
| 20260906020603 | 64 | 100 | 0.0 | 0.0 | 0.00 | 0.01 | 0.01 | 90 | 1014.2 |
| 20260906020103 | 64 | 100 | 0.0 | 0.0 | 0.00 | 0.01 | 0.01 | 90 | 1014.1 |
| 20260906015603 | 65 | 100 | 0.0 | 0.0 | 0.00 | 0.01 | 0.01 | 90 | 1014.0 |
| 20260906015103 | 65 | 100 | 0.0 | 0.0 | 0.00 | 0.01 | 0.01 | 90 | 1014.0 |
| 20260906014603 | 65 | 100 | 0.0 | 0.0 | 0.00 | 0.01 | 0.01 | 89 | 1013.9 |
| 20260906014102 | 65 | 100 | 0.0 | 0.0 | 0.00 | 0.01 | 0.01 | 89 | 1014.0 |
| 20260906013603 | 65 | 100 | 0.0 | 0.0 | 0.00 | 0.01 | 0.01 | 88 | 1013.9 |
| 20260906013102 | 65 | 100 | 0.0 | 0.0 | 0.00 | 0.01 | 0.01 | 88 | 1013.9 |
| 20260906012602 | 65 | 100 | 0.0 | 0.0 | 0.00 | 0.01 | 0.01 | 87 | 1013.8 |
| 20260906012103 | 65 | 100 | 0.0 | 0.0 | 0.00 | 0.01 | 0.01 | 87 | 1013.8 |
| 20260906011602 | 66 | 100 | 0.0 | 0.0 | 0.00 | 0.01 | 0.01 | 86 | 1013.7 |
| 20260906010602 | 66 | 100 | 0.0 | 1.0 | 0.00 | 0.01 | 0.01 | 85 | 1013.7 |
| 20260906004602 | 68 | 100 | 0.0 | 0.0 | 0.00 | 0.01 | 0.01 | 83 | 1013.6 |
| 20260906004102 | 68 | 100 | 0.0 | 0.0 | 0.00 | 0.01 | 0.01 | 83 | 1013.6 |
| 20260906003102 | 68 | 100 | 0.0 | 0.0 | 0.00 | 0.01 | 0.01 | 81 | 1013.5 |
| 20260906002602 | 69 | 100 | 0.0 | 3.0 | 0.00 | 0.01 | 0.01 | 81 | 1013.6 |
| 20260906002103 | 69 | 110 | 0.0 | 3.0 | 0.00 | 0.01 | 0.01 | 81 | 1013.5 |
| 20260906001603 | 69 | 95 | 1.0 | 3.0 | 0.00 | 0.01 | 0.01 | 81 | 1013.5 |
| 20260906001103 | 69 | 100 | 1.0 | 3.0 | 0.00 | 0.01 | 0.01 | 80 | 1013.5 |
| 20260906000603 | 69 | 67 | 0.0 | 2.0 | 0.00 | 0.01 | 0.01 | 80 | 1013.4 |
| 20260906000103 | 69 | 64 | 1.0 | 2.0 | 0.00 | 0.01 | 0.01 | 79 | 1013.4 |
| 20260905235603 | 69 | 79 | 1.0 | 2.0 | 0.00 | 0.01 | 0.01 | 78 | 1013.4 |
| 20260905234102 | 70 | 106 | 0.0 | 0.0 | 0.00 | 0.01 | 0.01 | 77 | 1013.5 |
| 20260905233603 | 70 | 106 | 0.0 | 0.0 | 0.00 | 0.01 | 0.01 | 75 | 1013.5 |
| 20260905233103 | 71 | 110 | 0.0 | 0.0 | 0.00 | 0.01 | 0.01 | 74 | 1013.5 |
| 20260905232602 | 71 | 110 | 0.0 | 1.0 | 0.00 | 0.01 | 0.01 | 73 | 1013.5 |
| 20260905232102 | 71 | 128 | 0.0 | 1.0 | 0.00 | 0.01 | 0.01 | 72 | 1013.4 |
| 20260905231603 | 71 | 131 | 0.0 | 1.0 | 0.00 | 0.01 | 0.01 | 72 | 1013.5 |
| 20260905230602 | 72 | 73 | 1.0 | 3.0 | 0.00 | 0.01 | 0.01 | 70 | 1013.6 |
| 20260905230103 | 72 | 87 | 1.0 | 3.0 | 0.00 | 0.01 | 0.01 | 70 | 1013.6 |
| 20260905225603 | 72 | 99 | 1.0 | 3.0 | 0.00 | 0.01 | 0.01 | 69 | 1013.6 |
| 20260905225103 | 72 | 68 | 1.0 | 2.0 | 0.00 | 0.01 | 0.01 | 68 | 1013.5 |
| 20260905224603 | 72 | 74 | 1.0 | 3.0 | 0.00 | 0.01 | 0.01 | 67 | 1013.5 |
| 20260905224104 | 72 | 75 | 1.0 | 3.0 | 0.00 | 0.01 | 0.01 | 68 | 1013.5 |
| 20260905223103 | 73 | 40 | 1.0 | 3.0 | 0.00 | 0.01 | 0.01 | 67 | 1013.5 |
| 20260905222603 | 73 | 53 | 2.0 | 3.0 | 0.00 | 0.01 | 0.01 | 66 | 1013.5 |
| 20260905221603 | 73 | 91 | 1.0 | 3.0 | 0.00 | 0.01 | 0.01 | 66 | 1013.6 |
| 20260905221103 | 74 | 64 | 2.0 | 6.0 | 0.00 | 0.01 | 0.01 | 66 | 1013.5 |
| 20260905220603 | 74 | 93 | 2.0 | 6.0 | 0.00 | 0.01 | 0.01 | 64 | 1013.5 |
| 20260905215603 | 75 | 3 | 0.0 | 2.0 | 0.00 | 0.01 | 0.01 | 64 | 1013.4 |
| 20260905215103 | 75 | 69 | 1.0 | 5.0 | 0.00 | 0.01 | 0.01 | 62 | 1013.3 |
| 20260905214602 | 75 | 29 | 2.0 | 3.0 | 0.00 | 0.01 | 0.01 | 63 | 1013.3 |
| 20260905213603 | 76 | 95 | 2.0 | 3.0 | 0.00 | 0.01 | 0.01 | 63 | 1013.3 |
| 20260905213102 | 76 | 39 | 1.0 | 6.0 | 0.00 | 0.01 | 0.01 | 63 | 1013.2 |
| 20260905212103 | 76 | 78 | 3.0 | 7.0 | 0.00 | 0.01 | 0.01 | 62 | 1013.2 |
| 20260905211603 | 76 | 95 | 2.0 | 3.0 | 0.00 | 0.01 | 0.01 | 63 | 1013.1 |
| 20260905211102 | 75 | 64 | 3.0 | 7.0 | 0.00 | 0.01 | 0.01 | 65 | 1013.1 |
| 20260905210603 | 75 | 122 | 2.0 | 5.0 | 0.00 | 0.01 | 0.01 | 64 | 1013.1 |
| 20260905210103 | 75 | 151 | 3.0 | 8.0 | 0.00 | 0.01 | 0.01 | 65 | 1013.1 |
| 20260905205602 | 75 | 126 | 2.0 | 5.0 | 0.00 | 0.01 | 0.01 | 65 | 1013.1 |
| 20260905205103 | 75 | 116 | 3.0 | 7.0 | 0.00 | 0.01 | 0.01 | 65 | 1013.1 |
| 20260905204103 | 76 | 26 | 3.0 | 10.0 | 0.00 | 0.01 | 0.01 | 67 | 1013.1 |
| 20260905203603 | 75 | 112 | 1.0 | 6.0 | 0.00 | 0.01 | 0.01 | 64 | 1013.1 |
| 20260905203102 | 76 | 69 | 2.0 | 6.0 | 0.00 | 0.01 | 0.01 | 67 | 1013.1 |
| 20260905202603 | 75 | 9 | 2.0 | 6.0 | 0.00 | 0.01 | 0.01 | 68 | 1013.0 |
| 20260905202103 | 75 | 63 | 1.0 | 3.0 | 0.00 | 0.01 | 0.01 | 69 | 1013.1 |
| 20260905201603 | 75 | 10 | 3.0 | 7.0 | 0.00 | 0.01 | 0.01 | 67 | 1013.2 |
| 20260905201103 | 75 | 354 | 3.0 | 7.0 | 0.00 | 0.01 | 0.01 | 67 | 1013.2 |
| 20260905200603 | 76 | 15 | 1.0 | 3.0 | 0.00 | 0.01 | 0.01 | 66 | 1013.3 |
| 20260905200105 | 75 | 348 | 2.0 | 7.0 | 0.00 | 0.01 | 0.01 | 67 | 1013.3 |
| 20260905195603 | 75 | 12 | 2.0 | 7.0 | 0.00 | 0.01 | 0.01 | 67 | 1013.2 |
| 20260905195104 | 75 | 26 | 3.0 | 6.0 | 0.00 | 0.01 | 0.01 | 67 | 1013.2 |
| 20260905194603 | 76 | 24 | 3.0 | 10.0 | 0.00 | 0.01 | 0.01 | 69 | 1013.3 |
| 20260905194103 | 76 | 7 | 2.0 | 5.0 | 0.00 | 0.01 | 0.01 | 67 | 1013.3 |
| 20260905193603 | 75 | 57 | 2.0 | 6.0 | 0.00 | 0.01 | 0.01 | 64 | 1013.3 |
| 20260905193103 | 75 | 90 | 3.0 | 9.0 | 0.00 | 0.01 | 0.01 | 65 | 1013.3 |
| 20260905192603 | 75 | 103 | 5.0 | 10.0 | 0.00 | 0.01 | 0.01 | 68 | 1013.3 |
| 20260905192102 | 74 | 325 | 5.0 | 9.0 | 0.00 | 0.01 | 0.01 | 70 | 1013.3 |
| 20260905191603 | 74 | 43 | 2.0 | 7.0 | 0.00 | 0.01 | 0.01 | 67 | 1013.4 |
| 20260905191103 | 75 | 0 | 2.0 | 7.0 | 0.00 | 0.01 | 0.01 | 69 | 1013.4 |
| 20260905185603 | 75 | 93 | 4.0 | 7.0 | 0.00 | 0.01 | 0.01 | 64 | 1013.6 |
| 20260905185103 | 75 | 101 | 2.0 | 5.0 | 0.00 | 0.01 | 0.01 | 67 | 1013.5 |
| 20260905184603 | 76 | 55 | 2.0 | 5.0 | 0.00 | 0.01 | 0.01 | 68 | 1013.5 |
| 20260905184103 | 75 | 25 | 1.0 | 7.0 | 0.00 | 0.01 | 0.01 | 70 | 1013.5 |
| 20260905183603 | 75 | 52 | 1.0 | 3.0 | 0.00 | 0.01 | 0.01 | 69 | 1013.5 |
| 20260905183103 | 75 | 108 | 2.0 | 5.0 | 0.00 | 0.01 | 0.01 | 67 | 1013.4 |
| 20260905182602 | 75 | 95 | 5.0 | 10.0 | 0.00 | 0.01 | 0.01 | 69 | 1013.5 |
| 20260905182102 | 75 | 66 | 2.0 | 6.0 | 0.00 | 0.01 | 0.01 | 69 | 1013.4 |
| 20260905181602 | 74 | 81 | 2.0 | 7.0 | 0.00 | 0.01 | 0.01 | 70 | 1013.4 |
| 20260905180603 | 75 | 55 | 2.0 | 6.0 | 0.00 | 0.01 | 0.01 | 69 | 1013.3 |
| 20260905175603 | 74 | 127 | 4.0 | 9.0 | 0.00 | 0.01 | 0.01 | 68 | 1013.3 |
| 20260905175103 | 74 | 66 | 1.0 | 7.0 | 0.00 | 0.01 | 0.01 | 70 | 1013.2 |
| 20260905174103 | 74 | 67 | 2.0 | 8.0 | 0.00 | 0.01 | 0.01 | 71 | 1013.2 |
| 20260905173603 | 74 | 18 | 3.0 | 5.0 | 0.00 | 0.01 | 0.01 | 72 | 1013.3 |
| 20260905173104 | 73 | 32 | 3.0 | 6.0 | 0.00 | 0.01 | 0.01 | 72 | 1013.4 |
| 20260905172603 | 74 | 24 | 2.0 | 7.0 | 0.00 | 0.01 | 0.01 | 68 | 1013.4 |
| 20260905172102 | 75 | 67 | 3.0 | 9.0 | 0.00 | 0.01 | 0.01 | 73 | 1013.3 |
| 20260905171603 | 73 | 90 | 4.0 | 6.0 | 0.00 | 0.01 | 0.01 | 71 | 1013.3 |
| 20260905171103 | 73 | 103 | 4.0 | 8.0 | 0.00 | 0.01 | 0.01 | 72 | 1013.4 |
| 20260905165103 | 72 | 65 | 2.0 | 3.0 | 0.00 | 0.01 | 0.01 | 73 | 1013.4 |
| 20260905164603 | 74 | 16 | 2.0 | 6.0 | 0.00 | 0.01 | 0.01 | 73 | 1013.3 |
| 20260905164103 | 74 | 321 | 1.0 | 3.0 | 0.00 | 0.01 | 0.01 | 76 | 1013.3 |
| 20260905163103 | 73 | 13 | 2.0 | 7.0 | 0.00 | 0.01 | 0.01 | 71 | 1013.4 |
| 20260905162603 | 74 | 44 | 3.0 | 7.0 | 0.00 | 0.01 | 0.01 | 72 | 1013.4 |
| 20260905162103 | 74 | 83 | 5.0 | 10.0 | 0.00 | 0.01 | 0.01 | 72 | 1013.4 |
| 20260905161103 | 74 | 96 | 3.0 | 8.0 | 0.00 | 0.01 | 0.01 | 72 | 1013.4 |
| 20260905160603 | 74 | 341 | 2.0 | 7.0 | 0.00 | 0.01 | 0.01 | 72 | 1013.4 |
| 20260905160104 | 73 | 48 | 3.0 | 12.0 | 0.00 | 0.01 | 0.01 | 72 | 1013.4 |
| 20260905155602 | 73 | 0 | 5.0 | 8.0 | 0.00 | 0.01 | 0.01 | 73 | 1013.4 |
| 20260905155103 | 73 | 12 | 3.0 | 8.0 | 0.00 | 0.01 | 0.01 | 71 | 1013.4 |
| 20260905154603 | 73 | 16 | 2.0 | 7.0 | 0.00 | 0.01 | 0.01 | 75 | 1013.4 |
| 20260905154103 | 73 | 24 | 2.0 | 5.0 | 0.00 | 0.01 | 0.01 | 70 | 1013.3 |
| 20260905153603 | 74 | 85 | 3.0 | 12.0 | 0.00 | 0.01 | 0.01 | 70 | 1013.4 |
| 20260905153103 | 74 | 93 | 5.0 | 9.0 | 0.00 | 0.01 | 0.01 | 73 | 1013.4 |
| 20260905152603 | 73 | 76 | 5.0 | 12.0 | 0.00 | 0.01 | 0.01 | 71 | 1013.5 |
| 20260905152103 | 74 | 74 | 2.0 | 6.0 | 0.00 | 0.01 | 0.01 | 75 | 1013.6 |
| 20260905150603 | 72 | 69 | 3.0 | 8.0 | 0.00 | 0.01 | 0.01 | 75 | 1013.6 |
| 20260905145603 | 72 | 78 | 5.0 | 10.0 | 0.00 | 0.01 | 0.01 | 76 | 1013.6 |
| 20260905145103 | 72 | 43 | 2.0 | 3.0 | 0.00 | 0.01 | 0.01 | 77 | 1013.6 |
| 20260905144603 | 72 | 329 | 2.0 | 6.0 | 0.00 | 0.01 | 0.01 | 76 | 1013.5 |
| 20260905144103 | 72 | 27 | 2.0 | 6.0 | 0.00 | 0.01 | 0.01 | 77 | 1013.5 |
| 20260905143604 | 72 | 0 | 3.0 | 6.0 | 0.00 | 0.01 | 0.01 | 78 | 1013.4 |
| 20260905143103 | 71 | 351 | 1.0 | 3.0 | 0.00 | 0.01 | 0.01 | 83 | 1013.5 |
| 20260905142603 | 71 | 42 | 2.0 | 5.0 | 0.00 | 0.01 | 0.01 | 79 | 1013.6 |
| 20260905142103 | 71 | 53 | 2.0 | 5.0 | 0.00 | 0.01 | 0.01 | 80 | 1013.5 |
| 20260905141605 | 71 | 6 | 2.0 | 5.0 | 0.00 | 0.01 | 0.01 | 80 | 1013.5 |
| 20260905141103 | 71 | 48 | 2.0 | 8.0 | 0.00 | 0.01 | 0.01 | 79 | 1013.6 |
| 20260905140603 | 72 | 42 | 2.0 | 5.0 | 0.00 | 0.01 | 0.01 | 80 | 1013.5 |
| 20260905140103 | 71 | 42 | 1.0 | 3.0 | 0.00 | 0.01 | 0.01 | 82 | 1013.6 |
| 20260905135603 | 72 | 100 | 1.0 | 3.0 | 0.00 | 0.01 | 0.01 | 82 | 1013.6 |
| 20260905135103 | 72 | 43 | 2.0 | 3.0 | 0.00 | 0.01 | 0.01 | 80 | 1013.5 |
| 20260905134603 | 72 | 33 | 1.0 | 3.0 | 0.00 | 0.01 | 0.01 | 83 | 1013.6 |
| 20260905134103 | 71 | 81 | 3.0 | 5.0 | 0.00 | 0.01 | 0.01 | 82 | 1013.6 |
| 20260905133603 | 71 | 51 | 0.0 | 5.0 | 0.00 | 0.01 | 0.01 | 84 | 1013.6 |
| 20260905133103 | 70 | 78 | 3.0 | 7.0 | 0.00 | 0.01 | 0.01 | 84 | 1013.6 |
| 20260905132103 | 69 | 84 | 4.0 | 7.0 | 0.00 | 0.01 | 0.01 | 85 | 1013.6 |
| 20260905131604 | 69 | 108 | 3.0 | 5.0 | 0.00 | 0.01 | 0.01 | 86 | 1013.7 |
| 20260905131103 | 69 | 76 | 2.0 | 5.0 | 0.00 | 0.01 | 0.01 | 86 | 1013.6 |
| 20260905130603 | 69 | 39 | 1.0 | 3.0 | 0.00 | 0.01 | 0.01 | 86 | 1013.7 |